When you browse on this site, cookies collect data to enhance your experience and personalize the content and advertising you see.
Visit our Privacy Policy to learn more. By continuing to use the site, you agree to this use of cookies and data.
  • In Hungary
  • List of Countries
  • For 7 days
  • Water Temperature
  • Weather Map
  • News
  • Weather Widgets
  • user-avatar
    Login

    Hourly Weather Znamenka

    Today, 29 January, Wednesday

    Time Temperature Precipitation Wind Pressure Humidity
    00:00 -3°C° 0 mm 2 mps 738 mmHg 97%
    01:00 -3°C° 0 mm 2 mps 738 mmHg 97%
    02:00 -2°C° 0 mm 2 mps 738 mmHg 97%
    03:00 -2°C° 0.1 mm 2 mps 738 mmHg 96%
    04:00 -2°C° 0.1 mm 2 mps 738 mmHg 96%
    05:00 -2°C° 0.1 mm 2 mps 737 mmHg 95%
    06:00 -3°C° 0 mm 2 mps 737 mmHg 96%
    07:00 -3°C° 0 mm 2 mps 737 mmHg 96%
    08:00 -3°C° 0 mm 2 mps 737 mmHg 97%
    09:00 -2°C° 0 mm 2 mps 737 mmHg 94%
    10:00 -2°C° 0 mm 3 mps 737 mmHg 91%
    11:00 -1°C° 0 mm 3 mps 737 mmHg 88%
    12:00 -1°C° 0 mm 3 mps 737 mmHg 88%
    13:00 -1°C° 0 mm 3 mps 737 mmHg 89%
    14:00 0°C° 0 mm 3 mps 737 mmHg 90%
    15:00 -1°C° 0 mm 3 mps 737 mmHg 92%
    16:00 -1°C° 0 mm 3 mps 736 mmHg 94%
    17:00 -1°C° 0 mm 3 mps 736 mmHg 96%
    18:00 -1°C° 0 mm 3 mps 736 mmHg 96%
    19:00 -1°C° 0 mm 3 mps 736 mmHg 96%
    20:00 0°C° 0 mm 3 mps 736 mmHg 96%
    21:00 0°C° 0 mm 3 mps 735 mmHg 96%
    22:00 0°C° 0 mm 3 mps 735 mmHg 96%
    23:00 -1°C° 0 mm 4 mps 734 mmHg 97%

    Tomorrow, 30 January, Thursday

    Time Temperature Precipitation Wind Pressure Humidity
    00:00 -1°C° 0.1 mm 4 mps 734 mmHg 97%
    01:00 -1°C° 0.1 mm 4 mps 734 mmHg 97%
    02:00 -1°C° 0.1 mm 4 mps 734 mmHg 97%
    03:00 -1°C° 0.1 mm 4 mps 733 mmHg 97%
    04:00 -1°C° 0.1 mm 4 mps 732 mmHg 97%
    05:00 -1°C° 0.1 mm 4 mps 731 mmHg 97%
    06:00 -1°C° 0.1 mm 4 mps 731 mmHg 97%
    07:00 -1°C° 0.1 mm 4 mps 731 mmHg 97%
    08:00 -1°C° 0.1 mm 5 mps 731 mmHg 97%
    09:00 -1°C° 0.3 mm 5 mps 730 mmHg 97%
    10:00 -1°C° 0.3 mm 5 mps 730 mmHg 97%
    11:00 -1°C° 0.3 mm 5 mps 729 mmHg 97%
    12:00 -1°C° 0.7 mm 4 mps 729 mmHg 96%
    13:00 -1°C° 0.7 mm 4 mps 729 mmHg 96%
    14:00 -2°C° 0.7 mm 4 mps 729 mmHg 95%
    15:00 -1°C° 0.1 mm 3 mps 729 mmHg 95%
    16:00 -1°C° 0.1 mm 3 mps 729 mmHg 94%
    17:00 -2°C° 0.1 mm 2 mps 729 mmHg 93%
    18:00 -2°C° 0 mm 2 mps 730 mmHg 94%
    19:00 -3°C° 0 mm 2 mps 730 mmHg 95%
    20:00 -3°C° 0 mm 2 mps 730 mmHg 96%
    21:00 -3°C° 0 mm 2 mps 730 mmHg 95%
    22:00 -3°C° 0 mm 2 mps 730 mmHg 95%
    23:00 -3°C° 0 mm 2 mps 730 mmHg 95%

    Day after tomorrow, 31 January, Friday

    Time Temperature Precipitation Wind Pressure Humidity
    00:00 -3°C° 0 mm 2 mps 730 mmHg 94%
    01:00 -3°C° 0 mm 2 mps 730 mmHg 94%
    02:00 -4°C° 0 mm 2 mps 731 mmHg 94%
    03:00 -4°C° 0 mm 2 mps 731 mmHg 94%
    04:00 -4°C° 0 mm 2 mps 731 mmHg 94%
    05:00 -4°C° 0 mm 2 mps 731 mmHg 93%
    06:00 -2°C° 0 mm 1 mps 731 mmHg 93%
    07:00 -2°C° 0 mm 1 mps 731 mmHg 92%
    08:00 -2°C° 0 mm 1 mps 732 mmHg 92%
    09:00 -2°C° 0 mm 1 mps 732 mmHg 90%
    10:00 -1°C° 0 mm 1 mps 732 mmHg 88%
    11:00 -1°C° 0 mm 1 mps 732 mmHg 86%
    12:00 0°C° 0 mm 1 mps 732 mmHg 85%
    13:00 0°C° 0 mm 1 mps 733 mmHg 84%
    14:00 0°C° 0 mm 1 mps 733 mmHg 82%
    15:00 0°C° 0 mm 1 mps 733 mmHg 84%
    16:00 -1°C° 0 mm 0 mps 733 mmHg 86%
    17:00 -1°C° 0 mm 0 mps 734 mmHg 87%
    18:00 -2°C° 0 mm 0 mps 734 mmHg 87%
    19:00 -2°C° 0 mm 0 mps 735 mmHg 87%
    20:00 -2°C° 0 mm 0 mps 735 mmHg 87%
    21:00 -2°C° 0 mm 0 mps 735 mmHg 87%
    22:00 -2°C° 0 mm 0 mps 735 mmHg 87%
    23:00 -2°C° 0 mm 0 mps 736 mmHg 87%

    1 February, Saturday

    Time Temperature Precipitation Wind Pressure Humidity
    00:00 -2°C° 0 mm 0 mps 736 mmHg 88%
    01:00 -2°C° 0 mm 0 mps 737 mmHg 88%
    02:00 -2°C° 0 mm 0 mps 737 mmHg 88%
    03:00 -2°C° 0 mm 0 mps 737 mmHg 89%
    04:00 -2°C° 0 mm 0 mps 737 mmHg 90%
    05:00 -2°C° 0 mm 0 mps 737 mmHg 90%
    06:00 -2°C° 0 mm 0 mps 738 mmHg 91%
    07:00 -1°C° 0 mm 1 mps 738 mmHg 91%
    08:00 -1°C° 0 mm 1 mps 739 mmHg 91%
    09:00 -1°C° 0 mm 1 mps 739 mmHg 89%
    10:00 0°C° 0 mm 1 mps 739 mmHg 86%
    11:00 -2°C° 0 mm 2 mps 739 mmHg 84%
    12:00 -1°C° 0 mm 2 mps 739 mmHg 83%
    13:00 -1°C° 0 mm 2 mps 739 mmHg 82%
    14:00 -1°C° 0 mm 2 mps 739 mmHg 81%
    15:00 -1°C° 0 mm 2 mps 739 mmHg 82%
    16:00 -2°C° 0 mm 2 mps 739 mmHg 84%
    17:00 -2°C° 0 mm 2 mps 738 mmHg 85%
    18:00 -2°C° 0 mm 2 mps 738 mmHg 86%
    19:00 -2°C° 0 mm 3 mps 738 mmHg 86%
    20:00 -4°C° 0 mm 3 mps 738 mmHg 87%
    21:00 -4°C° 0 mm 3 mps 738 mmHg 88%
    22:00 -4°C° 0 mm 3 mps 737 mmHg 90%
    23:00 -3°C° 0 mm 4 mps 737 mmHg 91%

    2 February, Sunday

    Time Temperature Precipitation Wind Pressure Humidity
    00:00 -3°C° 0.1 mm 4 mps 737 mmHg 92%
    01:00 -3°C° 0.1 mm 4 mps 736 mmHg 92%
    02:00 -3°C° 0.1 mm 4 mps 736 mmHg 93%
    03:00 -2°C° 0 mm 4 mps 735 mmHg 93%
    04:00 -2°C° 0 mm 4 mps 735 mmHg 93%
    05:00 -2°C° 0 mm 5 mps 734 mmHg 93%
    06:00 -1°C° 0.2 mm 5 mps 734 mmHg 94%
    07:00 -1°C° 0.2 mm 5 mps 733 mmHg 95%
    08:00 0°C° 0.2 mm 5 mps 733 mmHg 95%
    09:00 0°C° 0.4 mm 5 mps 733 mmHg 95%
    10:00 0°C° 0.4 mm 4 mps 732 mmHg 96%
    11:00 +1°C° 0.4 mm 4 mps 732 mmHg 96%
    12:00 +1°C° 0.5 mm 4 mps 732 mmHg 96%
    13:00 +1°C° 0.5 mm 4 mps 731 mmHg 96%
    14:00 +1°C° 0.5 mm 4 mps 731 mmHg 96%
    15:00 +1°C° 0.1 mm 4 mps 731 mmHg 95%
    16:00 +1°C° 0.1 mm 4 mps 731 mmHg 95%
    17:00 +1°C° 0.1 mm 4 mps 731 mmHg 94%
    18:00 0°C° 0 mm 4 mps 732 mmHg 93%
    19:00 0°C° 0 mm 4 mps 732 mmHg 91%
    20:00 -1°C° 0 mm 4 mps 732 mmHg 90%
    21:00 -1°C° 0 mm 4 mps 732 mmHg 89%
    22:00 -1°C° 0 mm 4 mps 732 mmHg 89%
    23:00 0°C° 0 mm 4 mps 732 mmHg 89%

    3 February, Monday

    Time Temperature Precipitation Wind Pressure Humidity
    00:00 -1°C° 0 mm 4 mps 732 mmHg 91%
    01:00 -1°C° 0 mm 5 mps 732 mmHg 93%
    02:00 -1°C° 0 mm 5 mps 731 mmHg 95%
    03:00 -1°C° 0.1 mm 5 mps 731 mmHg 94%
    04:00 -1°C° 0.1 mm 5 mps 731 mmHg 93%
    05:00 -1°C° 0.1 mm 4 mps 731 mmHg 92%
    06:00 -2°C° 0 mm 4 mps 731 mmHg 91%
    07:00 -2°C° 0 mm 4 mps 731 mmHg 90%
    08:00 -1°C° 0 mm 3 mps 731 mmHg 89%
    09:00 -1°C° 0 mm 4 mps 731 mmHg 86%
    10:00 -1°C° 0 mm 4 mps 732 mmHg 83%
    11:00 -1°C° 0 mm 4 mps 732 mmHg 81%
    12:00 -1°C° 0 mm 4 mps 732 mmHg 82%
    13:00 -1°C° 0 mm 4 mps 732 mmHg 82%
    14:00 -1°C° 0 mm 4 mps 732 mmHg 83%
    15:00 -1°C° 0 mm 4 mps 733 mmHg 82%
    16:00 -2°C° 0 mm 4 mps 733 mmHg 81%
    17:00 -1°C° 0 mm 3 mps 733 mmHg 80%
    18:00 -1°C° 0 mm 3 mps 734 mmHg 80%
    19:00 -1°C° 0 mm 3 mps 734 mmHg 80%
    20:00 -2°C° 0 mm 3 mps 734 mmHg 80%
    21:00 -3°C° 0 mm 4 mps 735 mmHg 81%
    22:00 -3°C° 0 mm 4 mps 735 mmHg 82%
    23:00 -3°C° 0 mm 4 mps 735 mmHg 83%
    Show more